Regional Weather Roundup
Issued by NWS

Home | Current Version | Previous Version | Text Only | Print | Product List | Glossary Off
Versions: 1 2 3 4 5 6 7 8 9 10 11 12 13 14 15 16 17 18 19 20 21 22 23 24 25 26 27 28 29 30 31 32 33 34 35 36 37 38 39 40 41 42 43 44 45 46 47 48 49 50

757
ASUS45 KTFX 092310
RWRMT
MONTANA REGIONAL WEATHER ROUNDUP
NATIONAL WEATHER SERVICE GREAT FALLS MT
400 PM MST TUE FEB 09 2016

NOTE: "FAIR" INDICATES FEW OR NO CLOUDS BELOW 12000 FEET WITH NO
SIGNIFICANT WEATHER AND/OR OBSTRUCTIONS TO VISIBILITY.

MTZ001>007-043-100000-
WEST OF THE DIVIDE

CITY           SKY/WX    TMP DP  RH WIND       PRES   REMARKS
KALISPELL      MOSUNNY   40  30  67 CALM      30.33F
MISSOULA       SUNNY     39  30  70 CALM      30.34F
BUTTE          SUNNY     37  28  70 SE3       30.34F
MULLAN PASS    SUNNY     48  30  49 VRB3      30.32F
ANACONDA         N/A     48  30  49 CALM      30.33F
DEER LODGE       N/A     43  32  65 CALM      30.34F
HAMILTON         N/A     48  32  53 CALM      30.32F
LIBBY            N/A     46  28  49 CALM      30.33
PLAINS           N/A     50  34  54 CALM      30.30F
$$

MTZ008-052>055-100000-
SOUTHWEST MONTANA

CITY           SKY/WX    TMP DP  RH WIND       PRES   REMARKS
BOZEMAN        SUNNY     39  28  64 SE3       30.32F
DILLON         SUNNY     43  28  55 SW10      30.34F
ENNIS          SUNNY     48  27  43 S20       30.39F
TWIN BRIDGES     N/A     41  28  60 SE6       30.29F
$$

MTZ009-010-012-014-046-048-049-054-100000-
EAST SLOPES AND CENTRAL MONTANA

CITY           SKY/WX    TMP DP  RH WIND       PRES   REMARKS
CUT BANK       PTSUNNY   54  24  31 W22G30    30.12F
GREAT FALLS    SUNNY     61  26  26 SW18      30.14F
HELENA         SUNNY     51  34  52 N3        30.29F
CHOTEAU          N/A     70   7   8 W8        30.16S
CONRAD           N/A     63  23  21 W9        30.14S
$$

MTZ011-013-016-021-045-047-050-051-100000-
NORTH CENTRAL MONTANA

CITY           SKY/WX    TMP DP  RH WIND       PRES   REMARKS
HAVRE          SUNNY     56  29  35 SW8       30.09F
LEWISTOWN      CLOUDY    53  27  36 SW5       30.16F
N BAR RANCH      N/A     59  19  21 NW12G18   30.18F
CHINOOK          N/A     61  23  23 W6        30.09F
$$

MTZ017>020-022>027-061-062-100000-
NORTHEAST MONTANA

CITY           SKY/WX    TMP DP  RH WIND       PRES   REMARKS
GLASGOW        SUNNY     49  34  56 W8        30.07F
JORDAN           N/A     54  34  46 NW5       30.10F
SIDNEY         CLOUDY    45  25  45 NE3       30.10F
WOLF POINT     SUNNY     48  33  56 W5        30.08F
PLENTYWOOD       N/A     36  25  64 E8        30.08F WCI  29
POPLAR           N/A     45  28  53 CALM      30.08F
SCOBEY           N/A     42  26  53 SE2       30.03F
$$

MTZ028>42-056>058-100000-
SOUTHCENTRAL AND SOUTHEAST MONTANA

CITY           SKY/WX    TMP DP  RH WIND       PRES   REMARKS
BAKER          SUNNY     50  28  42 NW7       30.10F
BILLINGS       MOSUNNY   61  23  23 SW17      30.17S
LIVINGSTON     CLOUDY    57  21  24 W13       30.26S
MILES CITY     SUNNY     57  30  35 W15       30.11F
EKALAKA          N/A     50  27  41 W14       30.07F
FORSYTH          N/A     61  27  27 W13       30.12F
LAUREL           N/A     59  25  27 S6        30.16F
ROUNDUP          N/A     64  23  21 W6        30.05F
$$

REGIONAL REPORTS...DAKOTAS

CITY           SKY/WX    TMP DP  RH WIND       PRES   REMARKS
WILLISTON      CLOUDY    38  23  55 SE3       30.10F
MINOT          CLOUDY    37  17  44 N9        30.14R WCI  30
DICKINSON      CLOUDY    39  20  46 N6        30.08F
BEACH          CLOUDY    45  30  57 W7        30.11F
CROSBY         MOCLDY    34  23  64 E3        30.13F
TIOGA          CLOUDY    32  23  69 CALM      30.15F
WATFORD CITY   MOCLDY    36  23  60 CALM      30.12F
BISMARCK       CLOUDY    40  18  41 NW5       30.14S
GRAND FORKS    CLOUDY    11   2  67 N13       30.29R WCI  -4
FARGO          CLOUDY    13   5  70 N12       30.26S WCI  -1
BUFFALO SD       N/A     49  29  46 NW12      30.04S
RAPID CITY     CLOUDY    52  29  41 N15       30.10F
$$

REGIONAL REPORTS...WYOMING/IDAHO/WASHINGTON

CITY           SKY/WX    TMP DP  RH WIND       PRES   REMARKS
GILLETTE       SUNNY     52  29  41 W12       30.18F
SHERIDAN       SUNNY     59  26  28 N10       30.18F
BUFFALO WY     SUNNY     55  27  34 W5        30.22S
CODY           SUNNY     54  27  35 NE7       30.25S
YELLOWSTONE LA   N/A     32  20  61 CALM      30.47S
IDAHO FALLS    CLOUDY    28  24  85 N6        30.51F WCI  22
SALMON         CLOUDY    28  18  64 CALM      30.49F
BOISE          SUNNY     44  32  62 SW6       30.48F
SPOKANE        MOSUNNY   49  35  58 NE5       30.28F
$$

REGIONAL REPORTS...ALBERTA

CITY           SKY/WX    TMP DP  RH WIND       PRES   REMARKS
EDMONTON       MOSUNNY   48  27  43 W7        29.96S
CALGARY        MOSUNNY   59  14  17 W13       30.02F
LETHBRIDGE     MOSUNNY   57  23  26 W22       30.05F
MEDICINE HAT   PTSUNNY   52  34  50 SW10      30.03F
WATERTON GATE    N/A     52  25  35 SW24G37     N/A
CARDSTON         N/A     57  21  24 W16G24      N/A
MILK RIVER       N/A     61  25  25 W13         N/A
ONEFOUR          N/A     55  30  38 SE6         N/A
$$

REGIONAL REPORTS...SASKATCHEWAN

CITY           SKY/WX    TMP DP  RH WIND       PRES   REMARKS
SWIFT CURRENT  CLEAR     50  36  57 NW16G23   30.00F
REGINA         MOCLDY    30  25  80 SE12      30.06F WCI  21
SASKATOON      MOCLDY    30  27  86 SE10      30.03F WCI  21
CYPRESS HILLS    N/A     48  28  46 SW3         N/A
VAL MARIE        N/A     54  32  43 W12         N/A
ROCKGLEN         N/A     41  32  70 W12         N/A
$$




USA.gov is the U.S. government's official web portal to all federal, state and local government web resources and services.